Regional Weather Roundup
Issued by NWS Albany, NY

Home | Current Version | Previous Version | Text Only | Print | Product List | Glossary On
Versions: 1 2 3 4 5 6 7 8 9 10 11 12 13 14 15 16 17 18 19 20 21 22 23 24 25 26 27
000
ASUS41 KALY 281510
RWRALY

NEW YORK STATE HOURLY WEATHER ROUNDUP
NATIONAL WEATHER SERVICE ALBANY NY
1100 AM EDT SUN AUG 28 2016

NOTE: "FAIR" INDICATES FEW OR NO CLOUDS BELOW 12,000 FEET WITH NO
SIGNIFICANT WEATHER AND/OR NO OBSTRUCTIONS TO VISIBILITY.

NYZ032-033-038>043-046>054-057>066-NYZ062>081-082-084-281600-
EAST


CITY           SKY/WX    TMP DP  RH WIND       PRES   REMARKS
ALBANY         MOSUNNY   78  62  57 S12       30.24F
GLENS FALLS    SUNNY     77  65  66 S9        30.22F
POUGHKEEPSIE   SUNNY     79  60  52 SW8       30.26F
NEWBURGH       SUNNY     79  66  65 SW7       30.30R
MONTGOMERY     SUNNY     80  62  54 SW10      30.28S
WHITE PLAINS   MOSUNNY   80  63  55 VRB7      30.28S
ISLIP          MOSUNNY   82  59  45 SE6       30.27F
NEW YORK CITY  MOSUNNY   85  57  38 VRB6      30.26S
CENTRAL PARK   SUNNY     82  63  52 CALM      30.29F
$$

NYZ005>009-017-018-044>046-055-056-281600-
CENTRAL


CITY           SKY/WX    TMP DP  RH WIND       PRES   REMARKS
FULTON         MOSUNNY   80  68  66 SW7       30.16S
SYRACUSE       PTSUNNY   81  67  62 S8        30.16S
ROME           MOSUNNY   80  67  64 SE7       30.20S
ELMIRA         SUNNY     82  67  60 SW10      30.21F
BINGHAMTON     SUNNY     76  62  62 S12       30.26F
MONTICELLO     SUNNY     77  57  50 S7        30.32S
$$

NYZ026>034-041>043-087-281600-
NORTH


CITY           SKY/WX    TMP DP  RH WIND       PRES   REMARKS
WATERTOWN      SUNNY     82  66  58 SW13G23   30.13S
FORT DRUM      NOT AVBL
MASSENA        CLOUDY    73  66  78 CALM      30.13F
SARANAC LAKE   SUNNY     78  62  57 SW15G21   30.19F
PLATTSBURGH    CLOUDY    73  65  75 S6        30.15F
$$

NYZ001>004-010>016-019>021-085-281600-
WEST


CITY           SKY/WX    TMP DP  RH WIND       PRES   REMARKS
NIAGARA FALLS  PTSUNNY   84  68  58 W8        30.16R
BUFFALO        PTSUNNY   80  71  74 SW14      30.18R
DUNKIRK        MOSUNNY   80  70  71 W10       30.20R
JAMESTOWN      SUNNY     77  66  69 SW6       30.25S
WELLSVILLE     MOSUNNY   77  66  68 SW9       30.28S
ROCHESTER      CLOUDY    82  70  66 SW12      30.16S
PENN YAN       SUNNY     82  67  60 S14       30.19F
$$

             KEY
       WCI = WIND CHILL INDEX
       VSB = VISIBILITY
       HX  = HEAT INDEX
$$




USA.gov is the U.S. government's official web portal to all federal, state and local government web resources and services.